Big Bear Station Historical Data
Daily Summary for January 17, 2017 Units:  English    Metric   Both
« Previous Day
Next Day »
Daily Weekly Monthly Yearly Custom
  High: Low: Average:
Temperature: 45.7 °F 12.9 °F 24.8 °F
Dew Point: 24.9 °F 11.4 °F 17.1 °F
Humidity: 95 % 30 % 77 %
Wind Speed: 3.2 mph 0.0 mph 0.6 mph
Wind Gust: -999.0 mph - -
Wind:- - SW
Pressure: 23.53 in 23.44 in -
Precipitation: 0.08 in    
Historical Graphs
 
 
Tabular Data for January 17, 2017
Time Temperature Dew Point Pressure Wind Wind Speed Wind Gust Humidity Rainfall Rate (Hourly)
00:03 19.9 °F 15.0 °F 23.45 in South 1.7 mph -999.0 mph 81 % 0 in
00:19 19.6 °F 14.4 °F 23.45 in South 2.2 mph -999.0 mph 80 % 0 in
00:34 19.6 °F 13.9 °F 23.45 in South 1.7 mph -999.0 mph 78 % 0 in
00:49 19.2 °F 13.8 °F 23.45 in South 2.7 mph -999.0 mph 79 % 0 in
01:05 18.7 °F 13.3 °F 23.45 in Calm   -999.0 mph 79 % 0 in
01:20 18.1 °F 13.3 °F 23.45 in SSE 1.7 mph -999.0 mph 81 % 0 in
01:35 18.0 °F 12.9 °F 23.45 in Calm   -999.0 mph 80 % 0 in
01:50 17.6 °F 12.8 °F 23.45 in Calm   -999.0 mph 81 % 0 in
02:06 17.1 °F 12.6 °F 23.45 in Calm   -999.0 mph 82 % 0 in
02:21 16.9 °F 12.9 °F 23.44 in Calm   -999.0 mph 84 % 0 in
02:36 16.2 °F 12.2 °F 23.44 in Calm   -999.0 mph 84 % 0 in
02:51 15.6 °F 12.2 °F 23.44 in Calm   -999.0 mph 86 % 0 in
03:06 15.4 °F 12.7 °F 23.44 in Calm   -999.0 mph 89 % 0 in
03:22 15.3 °F 12.6 °F 23.44 in SSE 2.2 mph -999.0 mph 89 % 0 in
03:37 15.1 °F 12.4 °F 23.44 in SSE 1.1 mph -999.0 mph 89 % 0 in
03:53 15.1 °F 12.4 °F 23.44 in Calm   -999.0 mph 89 % 0 in
04:08 14.7 °F 12.0 °F 23.44 in Calm   -999.0 mph 89 % 0 in
04:23 14.0 °F 11.4 °F 23.44 in South 2.2 mph -999.0 mph 89 % 0 in
04:38 13.8 °F 11.4 °F 23.44 in Calm   -999.0 mph 90 % 0 in
04:54 13.8 °F 11.9 °F 23.44 in Calm   -999.0 mph 92 % 0 in
05:09 13.6 °F 11.7 °F 23.44 in Calm   -999.0 mph 92 % 0 in
05:24 13.6 °F 12.0 °F 23.44 in Calm   -999.0 mph 93 % 0 in
05:39 13.6 °F 12.0 °F 23.44 in Calm   -999.0 mph 93 % 0 in
05:54 13.6 °F 12.2 °F 23.45 in Calm   -999.0 mph 94 % 0 in
06:10 13.5 °F 12.1 °F 23.45 in Calm   -999.0 mph 94 % 0 in
06:25 13.1 °F 11.7 °F 23.45 in Calm   -999.0 mph 94 % 0 in
06:40 12.9 °F 11.5 °F 23.45 in Calm   -999.0 mph 94 % 0 in
06:55 13.1 °F 11.7 °F 23.46 in Calm   -999.0 mph 94 % 0 in
07:10 13.3 °F 11.9 °F 23.46 in Calm   -999.0 mph 94 % 0 in
07:26 13.5 °F 12.3 °F 23.46 in Calm   -999.0 mph 95 % 0 in
07:41 13.8 °F 12.6 °F 23.47 in Calm   -999.0 mph 95 % 0 in
07:56 13.8 °F 12.6 °F 23.47 in Calm   -999.0 mph 95 % 0 in
08:11 14.2 °F 13.0 °F 23.48 in Calm   -999.0 mph 95 % 0 in
08:26 15.1 °F 13.7 °F 23.48 in Calm   -999.0 mph 94 % 0 in
08:42 15.6 °F 14.2 °F 23.48 in Calm   -999.0 mph 94 % 0 in
08:57 16.7 °F 15.0 °F 23.49 in Calm   -999.0 mph 93 % 0 in
09:12 18.5 °F 17.1 °F 23.49 in Calm   -999.0 mph 94 % 0 in
09:28 19.6 °F 17.7 °F 23.49 in Calm   -999.0 mph 92 % 0 in
09:43 21.2 °F 19.2 °F 23.50 in Calm   -999.0 mph 92 % 0 in
09:58 22.5 °F 20.3 °F 23.50 in Calm   -999.0 mph 91 % 0 in
10:14 25.9 °F 21.7 °F 23.50 in Calm   -999.0 mph 84 % 0 in
10:29 27.1 °F 21.8 °F 23.50 in Calm   -999.0 mph 80 % 0 in
10:44 31.1 °F 19.2 °F 23.49 in Calm   -999.0 mph 61 % 0 in
10:59 33.8 °F 18.0 °F 23.49 in NNW 1.7 mph -999.0 mph 52 % 0 in
11:15 35.8 °F 17.0 °F 23.49 in NW 3.2 mph -999.0 mph 46 % 0 in
11:30 37.0 °F 20.5 °F 23.48 in WNW 2.2 mph -999.0 mph 51 % 0 in
11:45 39.2 °F 18.6 °F 23.47 in NNW 2.7 mph -999.0 mph 43 % 0 in
12:01 41.9 °F 17.5 °F 23.47 in WNW 2.2 mph -999.0 mph 37 % 0 in
12:16 43.3 °F 16.8 °F 23.46 in Calm   -999.0 mph 34 % 0 in
12:31 44.6 °F 15.0 °F 23.45 in ESE 1.7 mph -999.0 mph 30 % 0 in
12:46 44.8 °F 15.2 °F 23.45 in Calm   -999.0 mph 30 % 0 in
13:01 45.1 °F 16.2 °F 23.45 in ENE 1.7 mph -999.0 mph 31 % 0 in
13:17 45.7 °F 17.5 °F 23.45 in Calm   -999.0 mph 32 % 0 in
13:32 44.6 °F 15.0 °F 23.45 in East 1.1 mph -999.0 mph 30 % 0 in
13:47 43.7 °F 15.7 °F 23.45 in SSE 1.1 mph -999.0 mph 32 % 0 in
14:02 42.8 °F 14.9 °F 23.46 in WNW 1.1 mph -999.0 mph 32 % 0 in
14:17 42.3 °F 19.1 °F 23.46 in NW 1.7 mph -999.0 mph 39 % 0 in
14:33 41.4 °F 17.1 °F 23.47 in WNW 2.2 mph -999.0 mph 37 % 0 in
14:48 40.1 °F 22.0 °F 23.47 in WNW 1.7 mph -999.0 mph 48 % 0 in
15:04 39.2 °F 23.5 °F 23.47 in WNW 2.7 mph -999.0 mph 53 % 0 in
15:19 38.8 °F 22.7 °F 23.48 in NW 3.2 mph -999.0 mph 52 % 0 in
15:34 38.5 °F 22.8 °F 23.48 in WNW 2.7 mph -999.0 mph 53 % 0 in
15:50 38.3 °F 21.7 °F 23.48 in NE 2.2 mph -999.0 mph 51 % 0 in
16:05 37.8 °F 23.5 °F 23.48 in Calm   -999.0 mph 56 % 0 in
16:20 36.5 °F 24.7 °F 23.48 in Calm   -999.0 mph 62 % 0 in
16:35 35.1 °F 24.1 °F 23.48 in South 1.1 mph -999.0 mph 64 % 0 in
16:50 33.3 °F 24.9 °F 23.48 in South 1.7 mph -999.0 mph 71 % 0 in
17:06 32.0 °F 24.0 °F 23.49 in Calm   -999.0 mph 72 % 0 in
17:22 30.6 °F 23.9 °F 23.50 in Calm   -999.0 mph 76 % 0 in
17:37 29.5 °F 22.9 °F 23.50 in Calm   -999.0 mph 76 % 0 in
17:52 28.4 °F 22.7 °F 23.50 in Calm   -999.0 mph 79 % 0 in
18:07 27.7 °F 22.6 °F 23.51 in Calm   -999.0 mph 81 % 0 in
18:22 26.8 °F 21.8 °F 23.51 in Calm   -999.0 mph 81 % 0 in
18:38 26.1 °F 21.9 °F 23.51 in Calm   -999.0 mph 84 % 0 in
18:53 25.9 °F 21.7 °F 23.50 in Calm   -999.0 mph 84 % 0 in
19:08 25.3 °F 21.4 °F 23.51 in Calm   -999.0 mph 85 % 0 in
19:23 24.6 °F 21.0 °F 23.51 in Calm   -999.0 mph 86 % 0 in
19:38 24.6 °F 21.3 °F 23.51 in Calm   -999.0 mph 87 % 0 in
19:54 24.3 °F 21.3 °F 23.51 in Calm   -999.0 mph 88 % 0 in
20:09 23.7 °F 20.7 °F 23.51 in Calm   -999.0 mph 88 % 0 in
20:24 23.2 °F 20.4 °F 23.51 in Calm   -999.0 mph 89 % 0 in
20:39 23.0 °F 20.5 °F 23.51 in Calm   -999.0 mph 90 % 0 in
20:54 23.0 °F 20.0 °F 23.52 in Calm   -999.0 mph 88 % 0 in
21:10 22.3 °F 19.6 °F 23.51 in Calm   -999.0 mph 89 % 0 in
21:25 21.9 °F 18.9 °F 23.51 in Calm   -999.0 mph 88 % 0 in
21:40 21.7 °F 18.7 °F 23.52 in Calm   -999.0 mph 88 % 0 in
21:55 21.7 °F 19.0 °F 23.52 in Calm   -999.0 mph 89 % 0 in
22:10 21.2 °F 19.2 °F 23.52 in Calm   -999.0 mph 92 % 0 in
22:26 20.8 °F 18.8 °F 23.52 in Calm   -999.0 mph 92 % 0 in
22:41 20.5 °F 18.8 °F 23.53 in Calm   -999.0 mph 93 % 0 in
22:56 20.7 °F 19.0 °F 23.52 in Calm   -999.0 mph 93 % 0 in
23:11 20.1 °F 18.4 °F 23.52 in Calm   -999.0 mph 93 % 0 in
23:26 19.6 °F 17.9 °F 23.52 in Calm   -999.0 mph 93 % 0 in
23:42 19.4 °F 17.5 °F 23.53 in Calm   -999.0 mph 92 % 0 in
23:57 19.4 °F 17.7 °F 23.53 in Calm   -999.0 mph 93 % 0 in
Big Bear CA Weather
Compliments of Weather Underground - 1.5 mb